Location: Great Malvern
(52.1167°N, 2.3167°W)
Time: 01:21:28
(UTC+00:00)

CZ-2C R/B - Pass Details

Date: 18 September 2020
Orbit: 640 x 704 km, 98.4° (Epoch: 23 October)

Event Time Altitude Azimuth Distance (km) Brightness Sun altitude
Rises 19:58:18 0° 21° (NNE) 2,963 7.1 -16.0°
Reaches altitude 10° 20:00:41 10° 31° (NNE) 2,051 6.2 -16.3°
Maximum altitude 20:04:47 35° 97° (E) 1,058 4.2 -16.9°
Enters shadow 20:05:31 32° 118° (ESE) 1,107 4.3 -17.0°
